Miscellaneous Local Product
Issued by NWS Hastings, NE

Home | Current Version | Previous Version | Text Only | Print | Product List | Glossary Off
Versions: 1 2 3 4 5 6 7 8 9 10 11 12 13 14 15 16 17 18 19 20 21 22 23 24 25 26 27 28 29 30 31 32 33 34 35 36 37 38 39 40 41 42 43 44 45 46 47 48 49 50

317
AXUS43 KGID 071102
MISGRI

GID CWA HOURLY WEATHER ROUNDUP
NATIONAL WEATHER SERVICE HASTINGS NE
500 AM CST SUN FEB 07 2016

NOTE: "FAIR" INDICATES FEW OR NO CLOUDS BELOW 12,000 FEET WITH NO
SIGNIFICANT WEATHER AND/OR OBSTRUCTIONS TO VISIBILITY.

...SOUTH CENTRAL NEBRASKA...

CITY           SKY/WX    TMP DP  RH WIND       PRES   REMARKS
GRAND ISLAND   PTCLDY    33  23  66 NW15      30.00F WCI  23
HASTINGS       CLOUDY    35  25  66 NW17      30.01S WCI  25
ORD            CLEAR     37  23  56 NW16      30.02R WCI  28
YORK           PTCLDY    32  27  80 NW14      29.99S WCI  22
AURORA         CLOUDY    33  26  73 NW15      29.99S WCI  23
LEXINGTON      CLOUDY    33  26  73 NW15      30.05S WCI  23
HOLDREGE       CLOUDY    35  26  68 NW9       30.04S WCI  28
HEBRON         CLOUDY    36  28  74 NW7       30.02R WCI  30

...NEBRASKA PANHANDLE...

CITY           SKY/WX    TMP DP  RH WIND       PRES   REMARKS
CHADRON        CLOUDY    34  24  67 W12       30.15R WCI  25
ALLIANCE       CLOUDY    31  20  63 NW17      30.12R WCI  19
SCOTTSBLUFF    CLOUDY    31  20  63 W12       30.17R WCI  22
SIDNEY         MOCLDY    23  15  71 W10       30.16R WCI  12

...WESTERN AND NORTH CENTRAL NEBRASKA...

CITY           SKY/WX    TMP DP  RH WIND       PRES   REMARKS
VALENTINE      CLOUDY    36  23  59 W15       30.04R WCI  27
AINSWORTH      PTCLDY    36  24  61 W13       30.02F WCI  27
ONEILL         CLEAR     36  25  62 W16G22    29.99R WCI  27
BROKEN BOW     CLOUDY    38  23  55 NW12      30.04R WCI  30
IMPERIAL       CLEAR     30  19  63 NW13      30.12R WCI  20
NORTH PLATTE   CLOUDY    29  20  69 W14       30.09R WCI  18
MCCOOK         MOCLDY    32  24  72 W13       30.10R WCI  22

...EASTERN NEBRASKA...

CITY           SKY/WX    TMP DP  RH WIND       PRES   REMARKS
NORFOLK        CLEAR     38  25  59 W15       29.96R WCI  29
SO SIOUX CITY  CLEAR     40  26  57 NW20      29.89R WCI  30
TEKAMAH        CLEAR     37  26  64 NW16      29.93R WCI  28
COLUMBUS       CLOUDY    39  21  48 NW24G31   29.95F WCI  28
ALBION         CLEAR     35  24  63 NW17      29.98S WCI  25
OMAHA EPPLEY   CLOUDY    36  27  69 NW16      29.94R WCI  26
OFFUTT AFB     CLOUDY    33  27  78 W8        29.94R WCI  26
MILLARD        PTCLDY    34  27  76 NW6       29.95R WCI  29
LINCOLN        PTCLDY    38  26  62 NW10      29.99R WCI  31
NEBRASKA CITY  CLOUDY    34  28  80 W10       29.95S WCI  26
BEATRICE       CLOUDY    30  27  90 SW3       29.99R
FALLS CITY     CLOUDY    36  28  73 W10       29.97R WCI  28

...NORTHERN KANSAS...

CITY           SKY/WX    TMP DP  RH WIND       PRES   REMARKS
GOODLAND       CLOUDY    29  20  69 W13       30.13R WCI  19
HILL CITY      CLOUDY    36  28  73 NW3       30.10S
NORTON         SUNNY     34  25  69 W8        30.08R WCI  27
PHILLIPSBURG   CLOUDY    37  28  70 NW6       30.09R WCI  33
BELOIT         CLEAR     34  28  80 W6        30.05R WCI  29
HAYS           PTCLDY    37  21  52 NW8       30.09S WCI  31
RUSSELL        CLOUDY    36  29  75 NW9       30.08R WCI  29
CONCORDIA      PTCLDY    36  28  73 W9        30.04R WCI  29
SALINA         CLOUDY    38  28  67 NW8       30.07R WCI  32
TOPEKA         CLOUDY    40  25  55 W8        30.00S WCI  34



USA.gov is the U.S. government's official web portal to all federal, state and local government web resources and services.